EW6329 Weather Reports


Display with metric or nautical units.
time (UTC)temp
F
wind
direction
speed
MPH
gust
MPH
rain 1hr
in
rain 24hr
in
rain mn
in
humidity
%
barometer
mb
20260507033035 52 259 0.0 0.0 0.00 1.55 1.55 95 1014.4
20260507031549 52 259 0.0 0.0 0.00 1.55 1.55 95 1013.8
20260507030101 52 259 0.0 0.0 0.00 1.55 1.55 95 1013.6
20260507024512 52 259 0.0 0.0 0.00 1.55 1.55 95 1013.6
20260507023023 52 259 0.0 0.0 0.00 1.55 1.55 95 1013.4
20260507021541 52 259 0.0 0.0 0.00 1.55 1.55 95 1013.2
20260507020107 52 259 0.0 0.0 0.00 1.55 1.55 95 1013.4
20260507014606 53 259 0.0 2.0 0.00 1.55 1.55 95 1013.0
20260507013033 53 259 0.0 2.0 0.00 1.55 1.55 94 1012.6
20260507011527 53 259 0.0 0.0 0.00 1.55 1.55 94 1012.3
20260507010040 53 259 0.0 2.0 0.00 1.55 1.55 94 1012.3
20260507004603 53 259 0.0 2.0 0.00 1.55 1.55 94 1013.0
20260507003103 53 259 0.0 2.0 0.00 1.55 1.55 94 1013.1
20260507001514 53 259 0.0 2.0 0.00 1.55 1.55 94 1012.7
20260507000033 53 259 0.0 1.0 0.00 1.55 1.55 94 1013.0
20260506234547 53 259 0.0 1.0 0.00 1.55 1.55 94 1013.1
20260506233109 53 259 0.0 1.0 0.00 1.55 1.55 93 1013.3
20260506231505 53 257 0.0 2.0 0.00 1.55 1.55 93 1012.6
20260506230020 53 257 0.0 2.0 0.00 1.55 1.55 93 1012.5
20260506224534 54 257 0.0 1.0 0.00 1.55 1.55 94 1012.3
20260506223048 54 256 0.0 2.0 0.00 1.55 1.55 94 1011.9
20260506221611 54 256 0.0 2.0 0.01 1.55 1.55 94 1011.3
20260506220009 54 281 0.0 2.0 0.01 1.55 1.55 94 1011.4
20260506214535 54 254 0.0 2.0 0.02 1.55 1.55 94 1011.3
20260506213040 54 281 0.0 1.0 0.02 1.55 1.55 94 1011.5
20260506211548 54 280 0.0 2.0 0.03 1.54 1.54 94 1012.6
20260506204511 54 280 0.0 2.0 0.03 1.53 1.53 94 1012.6
20260506203024 54 280 0.0 0.0 0.03 1.53 1.53 94 1012.2
20260506201541 54 280 0.0 0.0 0.01 1.51 1.51 93 1012.6
20260506200052 54 280 0.0 2.0 0.00 1.50 1.50 92 1013.4
20260506194502 54 279 0.0 2.0 0.00 1.50 1.50 93 1013.4
20260506193015 54 279 0.0 2.0 0.00 1.50 1.50 94 1013.4
20260506191528 54 279 0.0 2.0 0.00 1.50 1.50 95 1013.3
20260506190040 53 275 0.0 2.0 0.00 1.50 1.50 94 1013.6
20260506184555 53 295 0.0 2.0 0.00 1.52 1.50 95 1013.0
20260506183012 53 295 0.0 2.0 0.00 1.52 1.50 95 1013.0
20260506181519 53 298 0.0 2.0 0.00 1.52 1.50 95 1012.8
20260506180034 53 285 0.0 2.0 0.01 1.52 1.50 95 1012.7
20260506174544 52 310 0.0 2.0 0.02 1.52 1.50 95 1012.6
20260506173101 52 298 0.0 2.0 0.03 1.52 1.50 95 1013.0
20260506171507 52 298 0.0 2.0 0.05 1.51 1.49 95 1013.2
20260506170018 51 305 0.0 2.0 0.05 1.51 1.49 95 1013.0
20260506164537 51 325 0.0 2.0 0.06 1.60 1.48 95 1013.1
20260506163047 51 287 0.0 2.0 0.07 1.59 1.47 95 1012.7
20260506161559 51 287 0.0 2.0 0.06 1.56 1.44 95 1012.5
20260506160010 52 286 0.0 2.0 0.06 1.55 1.43 95 1012.3
20260506154522 52 277 0.0 2.0 0.06 1.88 1.42 95 1012.4
20260506153050 52 276 0.0 2.0 0.07 1.86 1.40 95 1012.4
20260506151548 52 277 0.0 2.0 0.09 1.84 1.38 95 1012.3
20260506150104 52 276 0.0 2.0 0.11 1.83 1.37 95 1012.6
20260506144515 51 276 0.0 2.0 0.12 2.06 1.35 95 1012.3
20260506143028 52 290 0.0 2.0 0.09 2.02 1.32 95 1011.9
20260506141538 52 286 0.0 1.0 0.06 2.00 1.29 95 1011.5
20260506140052 52 286 0.0 2.0 0.03 1.97 1.26 95 1011.8
20260506134502 52 275 0.0 2.0 0.00 2.06 1.23 95 1011.1
20260506133015 52 275 0.0 1.0 0.00 2.06 1.23 95 1011.2
20260506131535 52 269 0.0 2.0 0.00 2.06 1.23 95 1011.2
20260506130042 52 252 0.0 1.0 0.00 2.06 1.23 95 1010.9
20260506124554 52 251 0.0 0.0 0.00 2.06 1.23 95 1009.9
20260506123003 51 251 0.0 0.0 0.00 2.06 1.23 95 1010.0
20260506121516 51 251 0.0 2.0 0.00 2.06 1.23 95 1009.9
20260506084507 53 231 0.0 2.0 0.69 1.76 0.93 94 1007.2
20260506083020 53 294 0.0 2.0 0.64 1.69 0.86 94 1006.2
20260506081533 53 281 1.0 3.0 0.33 1.38 0.55 93 1007.9
20260506073012 55 307 0.0 2.0 0.20 1.05 0.22 92 1006.9
20260506071523 56 279 0.0 2.0 0.21 1.05 0.22 91 1006.1
20260506061508 67 311 1.0 5.0 0.01 0.84 0.01 94 1005.1
20260506044523 66 91 0.0 2.0 0.00 0.83 0.83 96 1004.4
20260506043034 66 45 0.0 1.0 0.00 0.83 0.83 96 1005.0
20260506041548 66 45 0.0 0.0 0.00 0.83 0.83 96 1005.0
20260506040101 65 45 0.0 1.0 0.00 0.83 0.83 96 1005.3
20260506034518 65 45 0.0 0.0 0.00 0.83 0.83 96 1005.4